Wind_Speed
35 34 34 33 34 34 34 33 32 31 31 31 30 28 27 26 25 24 24 24 23 23 22 21 21 20 19 18 18 17 16 15 15 16 16 16 18 20 22 24 24 23 23 22 21 20 18 17 15 15 14 13 11 11 10 9 8 7 7 7 6 6 6 6 5 5 5 5 5 6 6 6 6 8 9 10 12 13 13 14 15 16 17 17 18
36 35 34 34 34 34 34 34 33 33 33 32 31 29 28 27 26 26 26 25 24 23 22 22 21 20 19 17 16 16 15 14 15 16 15 15 17 20 22 24 25 24 25 24 23 22 21 19 18 17 17 15 14 13 12 12 12 11 10 10 10 10 10 10 9 8 7 8 9 9 10 10 10 10 12 12 13 15 15 15 16 17 17 18 19
35 35 35 34 34 33 34 34 34 34 33 33 32 30 29 28 28 28 26 25 25 24 23 22 22 21 19 17 16 15 14 14 14 14 14 14 15 18 21 24 25 25 25 25 24 24 23 22 21 20 20 18 17 17 16 16 15 15 14 14 14 13 13 14 14 13 12 12 12 13 13 15 14 14 16 16 16 18 18 17 18 18 18 19 19
34 35 35 34 34 34 34 34 35 35 34 33 32 31 30 30 30 29 27 27 26 24 23 23 23 22 20 18 17 16 14 14 14 13 13 13 14 16 19 22 24 24 24 24 25 25 25 24 23 23 23 22 20 20 19 19 19 18 18 18 17 17 17 18 18 19 18 16 15 15 17 18 18 18 20 20 20 21 22 21 21 21 20 21 21
32 33 34 34 35 34 34 35 35 35 35 34 33 32 31 31 30 29 28 27 26 25 24 23 23 22 20 18 17 17 15 15 14 13 13 13 14 14 16 18 19 21 23 24 24 25 25 25 24 25 25 24 23 23 22 22 22 22 21 21 21 21 21 22 22 23 23 21 19 19 20 21 21 21 23 24 25 25 25 25 25 24 24 24 24
30 31 32 34 35 35 35 35 35 35 35 34 33 32 32 31 30 29 28 27 26 25 24 23 23 22 20 19 18 18 17 17 16 15 15 14 14 14 14 14 15 16 18 20 22 23 24 25 25 25 26 26 25 25 25 25 25 24 24 24 24 25 25 25 26 26 27 26 25 25 25 25 25 25 25 27 29 29 29 29 29 28 28 29 28
31 30 30 32 33 35 35 35 35 35 34 34 33 33 32 31 30 29 28 27 27 26 24 23 23 22 20 20 20 19 19 19 18 17 17 16 15 14 13 13 12 13 13 14 16 18 20 21 23 24 25 26 26 26 26 27 27 27 27 26 27 28 28 28 29 30 30 30 30 29 29 29 30 29 29 30 32 32 32 33 33 32 32 33 33
33 32 31 31 31 32 33 33 34 33 33 33 33 33 33 31 30 29 29 28 28 26 25 24 23 23 22 21 21 21 21 21 19 18 17 16 15 14 13 13 12 12 12 13 13 14 15 16 18 19 21 21 23 24 26 27 29 29 28 29 29 30 31 31 31 32 33 33 33 32 32 33 33 32 32 33 34 34 35 37 38 36 35 37 37
34 34 33 31 29 28 29 31 32 33 34 34 34 33 32 31 30 30 30 29 28 27 26 25 25 25 24 23 23 23 23 22 21 19 17 16 15 14 14 14 14 14 14 14 15 15 15 16 16 17 18 19 20 21 23 24 26 28 27 28 30 31 32 32 33 33 34 35 35 34 35 36 35 34 35 36 36 37 38 40 41 40 39 41 41
32 33 32 30 27 26 27 29 31 32 33 34 34 33 32 32 31 31 30 30 29 28 28 27 26 26 25 25 24 25 25 23 22 20 18 17 17 17 17 16 16 16 16 17 16 16 17 18 18 19 20 21 21 22 22 23 24 25 26 26 28 30 31 32 32 33 33 34 34 34 36 36 35 35 35 35 36 37 38 40 41 42 42 43 43
29 30 30 28 26 26 26 27 28 30 31 32 32 32 32 32 32 32 31 30 30 30 29 28 27 26 26 26 26 26 26 24 23 21 20 20 20 20 19 19 19 19 19 19 18 18 19 20 20 21 22 23 23 24 24 24 25 25 25 26 27 29 29 30 30 31 32 33 33 33 34 35 33 33 34 34 34 36 38 39 41 42 42 43 43
28 28 28 27 27 26 26 26 26 27 29 30 30 31 31 31 32 32 32 31 31 31 31 29 28 26 26 27 27 27 26 25 24 23 22 22 22 22 21 21 21 21 21 20 20 20 21 22 22 23 24 25 25 25 25 25 25 25 26 26 27 28 29 30 30 31 31 32 32 32 33 33 32 32 33 34 35 37 38 40 41 42 43 44 44
27 26 25 26 26 26 25 25 25 26 26 27 28 29 30 31 31 31 31 31 31 32 32 31 29 28 27 27 26 26 26 25 25 24 23 23 23 23 23 22 22 22 21 21 21 22 22 23 24 24 23 23 23 22 22 21 22 23 23 24 24 25 26 27 28 29 30 31 31 31 31 32 33 33 33 34 37 38 39 40 41 42 44 45 44
26 25 24 24 23 24 24 23 23 23 23 24 26 27 29 29 29 29 30 30 32 32 32 31 30 30 29 27 27 27 26 25 25 25 24 23 23 23 24 24 23 23 22 22 22 21 21 21 19 17 16 16 16 15 16 16 17 19 20 21 21 22 23 25 26 27 29 31 32 32 32 34 36 36 37 39 41 42 43 43 44 44 46 47 46
28 26 26 26 25 24 24 24 23 22 22 23 24 25 26 27 27 28 28 29 29 29 29 30 30 30 30 28 28 27 27 25 25 25 23 23 23 24 24 25 24 23 22 21 20 18 17 17 14 12 13 13 13 14 15 16 18 20 22 22 23 24 26 27 28 30 32 34 35 36 36 38 39 40 41 43 45 47 48 48 48 49 49 49 48
27 28 28 28 27 27 27 27 26 25 25 25 25 25 25 24 24 25 25 26 25 26 27 28 28 29 29 29 28 27 26 25 25 24 23 23 24 25 25 25 25 24 22 19 18 17 16 16 15 14 14 15 15 17 19 21 23 24 25 25 25 26 28 30 31 33 35 36 38 38 39 40 41 42 43 44 47 49 50 49 50 51 50 48 47
25 26 27 27 27 27 28 28 28 28 28 28 27 26 24 23 23 23 23 23 23 23 24 24 25 26 27 28 27 25 24 24 24 23 23 23 25 26 26 26 26 25 22 20 19 18 17 16 16 17 17 18 18 20 23 25 26 27 27 27 28 28 30 32 34 35 36 38 38 39 40 41 41 41 42 43 46 49 50 50 51 52 48 44 42
23 25 25 25 25 26 26 27 28 29 29 29 28 27 26 25 23 23 22 22 21 22 22 22 23 24 26 26 25 24 23 23 23 23 23 25 26 27 27 27 27 26 23 21 19 18 17 18 19 20 20 21 22 24 26 28 29 29 29 30 30 31 32 35 36 36 36 37 38 38 39 40 40 40 39 40 43 45 46 48 49 49 48 46 41
22 22 23 23 23 23 23 24 25 26 27 27 27 27 26 25 25 24 23 22 21 21 21 22 22 23 23 24 24 25 24 23 23 24 24 26 27 28 29 29 28 26 24 22 21 20 20 20 21 22 23 24 25 26 28 30 30 30 31 32 32 32 33 35 35 35 35 35 35 36 37 38 38 38 37 38 39 40 42 46 48 48 50 52 49
19 19 20 21 21 21 21 22 22 23 24 24 25 25 25 25 25 25 25 24 23 22 21 21 22 22 23 23 23 25 25 24 24 25 25 26 28 29 30 30 29 27 26 24 23 23 23 23 24 25 25 26 27 28 29 31 31 31 32 32 31 30 32 33 34 34 34 33 34 35 36 37 38 36 36 38 39 40 42 47 49 49 51 54 54
20 20 20 21 22 22 22 22 22 22 22 22 23 24 24 25 26 26 26 26 25 25 23 22 22 22 23 23 24 26 27 25 25 26 27 27 28 30 32 31 29 28 27 26 26 25 26 26 26 27 28 28 29 30 30 31 31 31 31 31 30 30 31 33 33 33 33 33 33 35 35 36 38 36 35 37 40 41 44 47 50 50 51 54 55
20 20 20 20 21 22 23 23 23 23 23 23 23 24 23 24 25 26 27 28 28 28 27 26 25 24 24 24 25 26 27 27 26 27 28 28 29 31 32 31 30 30 30 29 29 28 28 29 29 30 30 30 30 30 31 31 31 31 31 31 31 30 32 32 32 32 33 33 32 33 34 36 38 38 36 35 37 40 43 47 50 52 53 54 56
20 20 20 19 19 20 21 23 24 24 24 25 25 24 24 25 25 26 27 29 30 31 31 30 29 27 26 26 26 27 28 28 28 28 29 30 31 32 33 33 33 33 33 32 32 31 31 31 31 32 32 31 31 31 31 32 32 31 31 31 31 31 32 32 32 32 31 31 32 33 35 35 36 38 38 37 37 39 43 46 49 53 55 56 58
18 18 18 17 17 18 18 19 21 23 24 24 25 25 25 26 26 27 28 29 30 31 32 32 33 32 31 29 29 29 30 30 30 30 31 32 33 34 35 35 35 35 35 34 34 33 33 33 33 33 33 32 32 32 32 32 32 32 33 33 32 32 31 31 32 31 30 32 33 34 33 33 34 37 39 40 41 43 46 48 51 54 58 59 59
14 14 15 15 15 15 14 15 15 17 19 21 22 24 25 26 27 28 29 30 30 31 31 32 34 35 35 34 33 33 33 33 33 33 34 34 35 36 37 37 37 38 37 36 36 35 35 34 34 34 33 33 33 33 33 33 34 34 34 33 32 31 31 31 31 31 31 33 33 32 31 32 34 36 39 42 45 48 51 53 55 57 59 60 59
14 13 13 13 13 12 12 12 13 13 14 15 17 19 22 25 27 29 30 31 31 31 31 31 33 34 35 35 35 35 36 37 36 37 37 37 38 38 38 38 39 39 38 38 38 37 36 35 35 34 34 34 34 34 35 36 36 35 34 32 31 31 31 30 29 29 29 30 30 31 31 33 35 38 41 45 48 52 55 59 61 61 60 61 61
16 15 14 14 13 13 12 12 13 13 14 14 14 15 16 18 21 24 27 30 31 32 32 32 32 33 33 34 33 34 37 39 40 40 41 41 41 41 40 40 40 40 39 38 38 38 37 36 36 35 35 35 35 36 35 32 33 35 33 31 31 31 30 28 27 26 27 29 30 31 33 35 37 40 44 47 50 54 58 61 63 63 61 61 62
18 18 17 17 16 16 16 16 15 15 16 16 16 15 15 14 15 16 18 22 25 28 30 32 32 32 32 32 32 33 35 38 40 42 43 44 43 43 42 42 41 41 40 39 39 39 38 37 37 36 36 35 35 35 32 28 30 34 34 32 30 29 27 26 26 27 28 30 31 32 35 38 41 44 46 49 52 56 59 61 62 62 62 61 62
20 21 21 21 21 21 21 21 20 19 18 19 19 18 17 16 15 14 14 15 17 20 23 26 29 31 32 33 34 34 35 36 38 40 41 42 42 43 42 42 41 41 40 40 39 39 38 37 36 36 36 35 34 34 33 31 32 34 32 29 27 26 25 26 27 29 30 31 32 35 38 40 43 46 49 52 54 57 60 60 60 61 61 61 62
24 25 26 26 26 26 25 25 24 23 21 21 21 21 20 19 18 16 16 16 17 17 18 20 22 25 28 30 32 33 34 35 36 37 38 38 39 39 39 39 39 39 39 38 38 37 36 35 35 35 35 35 34 32 32 31 30 29 27 26 25 25 26 28 29 29 31 32 35 37 39 41 44 48 51 54 57 59 59 58 58 59 60 60 60
28 29 29 29 29 29 28 27 26 26 25 24 23 23 22 21 19 18 18 19 19 20 20 21 22 23 23 25 26 28 30 31 33 34 35 36 36 37 37 37 37 36 36 36 36 35 35 34 34 34 33 33 32 30 29 27 26 25 25 25 26 27 28 29 30 31 32 34 36 38 40 42 46 50 53 56 58 58 57 57 57 56 56 56 56
27 27 27 27 27 27 27 27 27 27 27 26 26 25 24 23 22 20 20 20 21 22 22 23 24 24 24 24 25 26 26 27 28 29 30 31 33 34 35 36 36 36 36 36 34 33 33 32 31 30 30 29 27 27 26 24 23 24 25 26 27 28 29 30 31 32 34 35 37 38 40 43 47 51 54 55 57 57 56 54 54 53 52 51 51
26 25 25 24 25 25 26 27 28 28 28 28 28 28 27 26 25 24 24 24 24 24 25 25 25 26 25 26 26 26 26 27 27 27 27 28 29 30 31 32 33 33 33 33 31 29 28 26 26 26 26 25 24 25 25 25 25 25 26 27 28 29 30 31 32 33 35 36 37 39 41 44 48 51 53 53 53 53 52 50 49 48 48 47 47
24 24 23 23 24 24 25 26 27 28 29 29 29 29 29 29 29 28 28 27 27 27 27 27 27 27 27 27 28 27 27 27 27 27 27 28 28 27 27 27 28 28 27 27 26 25 23 22 23 23 23 23 25 26 27 26 26 27 27 28 29 30 31 32 33 35 36 37 38 39 42 45 48 50 50 49 48 47 46 44 44 44 44 45 45
20 20 21 22 23 24 24 25 25 26 27 27 28 29 29 30 30 29 29 30 30 29 29 28 28 28 28 29 29 28 27 27 28 27 27 27 27 26 26 26 26 26 25 23 23 22 23 24 25 24 24 25 27 28 28 27 27 28 29 30 30 31 32 33 34 35 36 37 38 39 42 45 47 47 46 45 43 42 41 40 40 40 41 42 43
17 17 19 21 22 23 24 24 24 24 24 25 26 26 27 28 29 29 29 30 30 30 30 29 29 28 28 29 29 29 28 27 27 27 28 28 26 25 25 25 25 26 25 24 25 26 25 26 26 27 28 29 29 28 28 28 28 29 30 30 31 32 33 34 35 36 37 37 38 39 42 44 45 43 41 40 38 38 37 37 36 37 38 39 40
15 15 16 18 20 22 23 24 24 24 25 25 26 26 27 27 28 29 29 30 31 31 31 31 30 29 29 28 27 27 26 24 23 25 28 28 26 24 25 26 27 27 26 27 29 29 27 27 27 28 29 29 28 28 28 28 29 30 30 31 32 33 34 35 36 37 37 37 38 39 41 42 42 41 39 37 36 35 35 34 34 34 34 35 36
14 14 15 16 18 20 21 22 24 24 25 26 26 27 27 28 28 29 30 31 31 32 32 32 31 29 28 26 25 25 24 24 26 28 30 28 26 24 24 24 25 25 25 25 26 28 27 27 27 27 27 27 27 28 28 29 30 31 31 32 33 34 35 36 36 37 37 37 38 39 40 41 40 39 37 36 35 34 34 33 33 33 32 32 33
13 13 13 14 16 17 18 20 21 22 23 24 26 27 27 26 27 28 29 29 30 31 31 30 29 27 25 25 25 24 24 25 28 29 28 26 26 27 25 23 22 23 24 24 25 26 26 26 26 26 27 27 28 28 29 29 30 31 32 33 34 35 36 36 36 37 37 37 38 39 40 40 39 37 36 35 34 34 33 32 32 32 32 32 32
15 13 12 13 14 15 17 18 18 19 19 20 20 21 22 23 24 25 25 26 28 28 28 29 28 27 26 26 26 27 28 27 25 23 22 21 23 25 25 23 21 20 21 22 23 24 25 26 26 27 27 27 28 29 29 30 31 32 33 34 35 35 36 36 36 36 37 37 38 39 40 39 38 37 35 35 34 33 33 32 31 31 31 31 32
17 15 13 12 13 14 15 17 18 19 19 18 17 18 19 21 22 23 25 27 28 27 28 31 32 30 29 29 28 27 25 22 20 18 18 19 21 23 23 22 21 21 21 23 24 25 25 26 26 27 27 28 28 29 29 30 31 33 34 34 35 36 36 36 36 36 36 37 38 39 39 38 37 36 35 34 34 33 32 32 31 31 31 31 32
16 16 14 13 13 13 15 17 18 20 20 19 18 20 22 23 24 26 28 29 29 28 28 28 25 23 23 24 21 16 12 12 16 19 20 20 22 23 23 23 23 23 23 24 24 25 25 26 26 27 27 28 28 29 30 32 33 34 35 35 36 36 36 36 36 35 35 36 37 37 36 36 35 34 34 34 33 33 33 32 31 31 30 31 32
15 15 14 14 13 12 13 15 18 20 21 20 19 21 23 24 24 25 25 22 22 23 23 22 20 19 19 19 17 15 12 12 15 18 19 19 21 22 22 23 24 23 23 24 24 25 25 25 26 27 28 28 30 31 32 33 34 35 36 36 36 36 36 36 35 34 34 34 34 34 34 34 33 32 32 32 32 32 32 32 32 31 31 31 32
15 14 14 13 12 11 11 12 14 16 19 20 20 21 23 24 25 25 21 17 14 14 15 15 15 16 17 18 19 19 19 19 19 20 20 20 21 22 22 23 23 23 23 24 24 25 25 26 26 28 29 30 31 32 34 35 36 36 36 36 36 36 36 36 35 34 33 33 33 32 32 32 32 31 31 31 31 31 31 30 30 30 31 32 33
15 14 14 14 13 12 12 12 12 13 15 18 20 21 22 24 25 25 24 21 18 17 17 17 16 15 16 18 18 18 18 20 22 22 22 22 21 22 22 22 22 22 23 24 24 25 26 26 27 29 30 31 33 34 35 36 36 36 36 36 36 37 36 35 34 32 32 32 32 32 32 32 31 31 31 30 30 30 30 29 28 28 28 30 31
16 15 15 15 14 13 13 13 12 11 12 16 19 22 22 22 22 23 23 22 22 21 20 19 18 17 17 17 17 17 19 20 21 22 22 21 21 21 22 22 22 23 24 24 25 26 27 28 29 31 32 33 34 35 35 36 36 36 36 36 36 36 35 34 33 32 32 31 31 31 31 31 31 32 31 31 30 30 29 28 27 26 26 27 28
15 14 14 14 13 12 10 9 8 7 8 11 15 18 18 17 17 18 19 19 18 17 16 14 14 15 15 16 17 19 21 21 21 21 21 22 22 22 22 23 24 25 25 26 27 28 29 30 31 32 33 34 35 35 35 35 35 36 36 36 36 35 34 33 33 32 31 31 31 31 31 32 32 32 32 32 31 30 29 27 26 25 25 26 26
14 12 11 11 11 10 8 5 4 5 5 6 8 10 11 11 12 14 15 16 16 16 16 16 16 16 15 16 18 20 21 21 22 22 23 24 24 24 24 25 26 27 28 29 29 30 31 32 32 33 33 34 34 33 34 34 34 35 35 35 35 35 34 33 32 31 30 30 30 31 32 33 33 32 32 32 31 31 29 28 25 24 23 24 25
12 8 7 10 12 11 9 7 6 7 7 7 8 9 11 12 13 14 15 17 19 20 21 20 19 19 19 20 21 22 22 23 24 25 25 26 26 26 26 27 28 29 30 31 32 32 33 33 33 32 32 32 32 32 32 32 33 33 34 34 34 35 34 32 30 29 28 29 30 32 34 35 34 33 32 31 30 30 29 27 25 23 22 23 23
12 9 11 13 13 11 10 9 8 9 10 10 11 12 14 14 14 15 16 18 19 20 21 21 21 21 22 22 23 23 23 24 25 25 26 27 27 27 28 29 29 30 31 31 32 32 32 32 32 31 31 31 32 33 32 31 32 33 32 32 32 32 32 30 30 31 32 32 33 35 36 35 33 32 32 31 29 28 28 27 24 21 21 22 23
14 13 15 14 11 9 9 9 10 11 12 12 13 14 14 14 15 16 17 17 17 18 18 20 22 23 24 23 24 24 25 25 26 27 27 28 28 29 29 29 30 30 30 30 30 30 30 30 31 31 32 32 32 32 32 32 32 32 32 31 30 31 33 33 35 37 37 35 34 35 36 35 34 34 33 30 28 26 25 25 23 21 21 21 22
Wind_Direction
212 212 213 213 211 210 209 209 208 207 207 208 208 209 210 211 211 211 211 213 216 220 224 229 235 240 243 246 248 250 250 247 244 242 238 229 222 219 218 216 213 213 216 215 213 211 208 208 209 211 212 212 215 220 225 231 236 242 251 260 265 270 271 265 259 258 257 264 278 285 288 289 291 297 300 303 307 309 313 316 316 317 321 323 323
213 212 213 214 214 212 211 210 210 211 211 210 209 209 210 211 213 214 215 216 219 221 224 227 233 238 241 242 242 242 242 240 236 234 232 227 221 218 218 217 215 215 217 218 218 217 215 214 217 220 222 223 226 232 238 244 249 253 257 260 264 268 273 273 268 257 250 257 268 275 279 279 278 282 287 289 294 297 300 303 304 306 311 313 315
215 214 214 215 215 214 213 212 212 213 214 214 212 211 211 212 214 216 217 219 221 223 224 226 231 235 237 235 233 231 231 229 228 226 222 219 217 217 217 218 218 218 219 221 223 223 220 220 223 227 229 230 232 237 242 247 252 255 258 261 263 266 269 272 272 267 256 250 256 266 272 274 275 279 281 282 284 287 288 291 293 296 300 303 307
215 215 215 215 216 216 215 214 214 214 215 216 215 213 213 213 214 216 217 220 222 223 224 225 229 233 233 229 225 223 221 219 219 217 213 210 211 214 217 219 220 220 221 223 226 227 226 225 228 232 234 234 237 240 243 247 252 255 257 259 261 264 266 268 270 271 268 258 253 257 263 267 271 275 278 279 280 281 282 283 285 288 292 295 298
215 216 216 216 216 217 217 216 216 216 216 217 217 216 216 216 216 216 218 220 222 223 223 224 228 232 232 227 222 219 216 213 211 207 204 204 205 208 213 217 220 222 224 226 229 232 231 231 233 237 238 238 240 244 246 249 252 255 257 259 261 262 263 265 267 269 270 269 264 262 263 265 268 270 275 278 279 279 280 281 283 285 287 288 289
213 215 216 217 217 218 219 218 218 217 217 217 218 218 218 218 218 218 219 220 222 223 223 223 227 231 231 226 221 218 215 212 208 202 200 201 201 202 206 209 212 217 222 227 231 234 236 237 240 243 244 244 245 248 250 252 253 255 257 260 262 263 263 265 267 268 269 270 270 268 269 269 269 269 271 274 276 278 280 281 282 283 283 283 283
212 215 218 219 219 219 220 221 221 221 220 219 219 219 220 220 219 219 219 220 221 223 223 223 225 228 229 225 220 218 216 214 210 205 203 203 202 203 205 206 207 210 215 221 228 234 238 241 244 247 249 250 250 252 253 255 256 257 258 259 261 263 264 264 266 267 268 270 271 271 272 273 273 273 273 274 275 277 279 279 279 279 280 280 281
213 215 219 221 221 220 221 223 224 224 223 223 222 221 221 220 220 219 218 220 221 223 224 223 223 225 226 224 220 218 217 215 212 210 208 208 208 207 210 213 214 215 217 221 226 232 238 241 245 248 251 253 254 255 256 257 258 258 259 262 263 264 265 265 266 267 268 270 271 272 273 274 274 276 276 276 277 278 279 279 279 279 279 278 278
214 215 219 223 223 222 222 223 225 226 226 226 224 223 222 221 221 220 220 221 222 224 225 224 223 223 223 223 220 219 218 216 215 215 215 217 217 217 219 222 225 227 228 230 232 234 238 243 246 249 251 252 253 254 255 257 259 260 261 263 265 266 267 268 269 269 271 272 273 275 276 276 277 278 279 279 280 281 280 280 280 281 279 278 277
213 214 217 220 222 222 222 222 224 226 228 229 228 226 225 223 222 222 222 223 224 225 226 226 226 224 223 223 222 221 220 218 217 218 220 223 226 228 230 232 235 237 238 239 239 240 242 245 247 250 252 253 254 255 256 257 259 261 262 264 266 268 269 270 272 274 275 277 278 279 280 279 281 282 282 282 282 282 282 281 281 280 279 279 279
211 212 214 216 218 220 221 221 223 225 228 230 230 229 228 227 226 225 225 225 226 226 228 229 229 227 226 225 224 224 223 220 219 221 223 227 230 233 236 238 240 242 243 245 246 247 248 249 251 252 253 254 256 257 258 259 260 261 262 263 266 268 271 273 276 278 279 280 282 282 282 283 285 285 285 285 285 283 281 280 280 281 281 281 282
210 210 211 213 216 219 221 222 223 225 226 228 230 230 231 231 230 229 229 229 228 229 230 231 232 231 230 228 226 226 224 221 220 221 224 228 233 237 240 241 243 244 246 247 248 249 250 251 252 252 254 256 257 259 260 261 263 264 265 265 266 268 272 275 277 279 280 281 283 284 285 287 288 288 287 287 285 283 282 281 282 282 282 282 282
209 210 210 211 213 216 219 222 224 225 225 227 228 230 231 233 233 233 233 233 233 233 233 233 233 233 233 232 230 229 226 222 221 222 225 230 235 240 243 245 246 246 247 248 248 249 250 251 253 254 255 257 258 260 262 263 265 266 267 267 268 270 273 275 277 279 281 283 285 288 289 289 290 290 289 287 286 285 285 284 283 282 282 282 282
209 209 210 211 212 213 216 219 221 222 223 225 226 229 231 232 234 235 235 235 235 236 236 236 236 236 236 234 233 231 228 224 223 225 228 233 238 243 246 246 246 246 246 247 247 248 248 249 249 249 248 251 254 257 260 263 264 266 267 269 272 274 275 276 278 281 283 284 287 291 291 289 291 293 291 288 287 287 285 284 283 283 282 281 280
208 208 211 213 214 215 218 219 220 220 221 223 225 227 229 231 232 233 235 235 237 238 238 238 237 236 236 235 233 232 230 227 226 228 231 236 240 243 244 244 245 245 244 243 242 241 239 239 240 240 243 248 253 258 262 265 267 268 270 272 275 276 276 276 277 278 280 282 285 289 290 289 290 291 290 289 288 287 286 285 284 283 281 281 282
209 209 212 214 215 218 220 221 222 223 224 225 227 228 229 230 232 233 235 236 237 238 237 237 237 236 235 234 233 231 228 226 227 229 232 236 239 240 241 243 244 244 241 236 233 231 234 239 245 249 254 257 261 264 267 269 269 271 272 274 276 277 277 276 275 276 277 280 282 285 286 286 286 287 288 288 287 287 287 287 285 284 283 285 287
207 209 212 213 215 217 219 221 223 225 228 230 231 232 232 233 233 235 237 237 237 237 237 237 237 236 235 234 234 232 228 225 227 229 232 235 237 238 240 242 243 242 237 232 231 234 239 247 254 258 262 265 267 268 269 270 271 273 275 277 278 278 279 278 278 278 279 280 281 282 282 282 282 283 284 286 287 287 287 288 289 289 290 293 295
204 207 210 212 215 217 220 222 224 227 230 232 233 234 235 235 235 236 237 238 238 239 239 237 236 235 234 234 234 233 229 226 228 229 231 233 235 237 239 240 240 239 237 235 237 243 248 253 259 263 265 267 268 269 270 271 272 274 276 278 279 279 279 279 279 281 281 281 281 280 279 279 279 280 283 287 289 289 291 294 297 299 301 302 303
200 204 208 211 215 217 220 223 225 227 230 231 233 234 234 235 236 237 237 237 236 237 237 236 234 233 233 232 231 231 229 227 228 230 230 232 234 236 237 238 238 238 239 240 243 248 252 257 261 265 267 269 270 270 270 271 272 274 276 277 279 280 280 279 280 281 281 281 282 283 284 284 285 287 291 294 297 300 303 305 306 307 306 306 308
197 198 201 205 209 212 215 218 220 223 227 228 230 233 234 234 235 236 238 238 237 236 237 236 234 232 232 231 228 228 228 228 229 230 231 232 234 235 235 236 237 239 241 243 246 250 255 260 264 268 271 273 273 273 272 273 275 276 277 278 279 281 281 280 281 281 282 285 289 292 293 292 293 297 300 300 302 306 308 306 305 305 304 305 307
205 204 202 203 206 208 210 212 213 215 218 220 224 227 230 232 234 235 236 237 238 238 238 238 236 233 232 230 227 226 229 230 228 229 231 232 233 234 234 235 238 241 244 247 250 253 258 262 267 271 273 274 274 274 275 276 277 277 278 278 280 280 280 280 282 284 288 291 293 293 293 296 300 303 304 302 303 306 307 306 306 306 304 303 303
221 221 217 213 212 212 211 210 209 210 210 213 217 220 222 225 229 231 233 235 237 238 239 239 238 235 233 231 228 228 230 231 230 229 231 232 232 232 234 237 240 244 247 250 253 256 260 264 268 272 273 274 274 275 276 276 276 277 278 279 280 280 280 282 285 287 289 291 292 293 296 300 303 303 302 302 304 307 308 308 307 306 304 303 302
234 236 234 229 224 222 219 214 212 211 210 211 212 212 214 219 223 226 230 232 234 236 237 238 239 237 235 233 231 230 232 233 232 230 230 230 231 232 235 238 242 245 249 253 256 259 262 266 270 272 274 275 276 276 276 276 277 279 280 281 282 282 284 286 287 288 290 292 295 297 298 299 300 301 302 304 307 307 306 306 306 306 304 303 303
232 235 235 233 225 220 218 214 213 215 214 215 215 212 211 215 219 223 227 231 233 234 234 236 238 238 237 235 234 234 235 235 235 233 232 231 231 233 237 241 244 249 253 256 259 262 265 268 271 273 275 276 276 277 277 278 280 282 282 282 283 284 285 286 287 289 291 292 294 296 297 298 300 302 304 306 308 307 306 305 305 305 304 303 303
216 216 218 221 217 213 212 209 208 210 213 217 220 219 217 219 220 223 226 229 232 233 233 234 237 238 238 237 236 236 237 238 239 239 238 237 236 238 240 243 247 251 255 259 262 264 267 269 272 274 275 276 277 279 280 281 282 281 282 283 284 286 286 286 288 290 289 290 293 295 297 299 301 303 305 307 308 308 307 306 305 305 304 303 303
213 212 214 218 219 221 224 222 217 215 214 216 221 223 224 226 227 228 229 230 232 233 233 234 237 238 239 238 237 237 238 240 241 242 243 244 245 245 247 249 251 254 257 260 263 265 267 269 271 273 275 276 278 278 279 281 282 281 282 284 286 286 286 287 288 289 289 290 293 295 298 300 303 305 306 308 309 309 308 307 307 307 307 306 306
226 229 231 232 233 240 249 249 244 240 234 229 227 226 226 229 231 234 237 238 237 237 236 236 237 238 239 239 238 238 239 240 242 243 245 247 248 249 251 253 255 257 259 261 263 265 267 269 270 272 273 275 276 278 280 282 283 283 285 286 286 286 286 287 288 288 288 291 293 296 300 303 305 307 309 309 310 310 309 308 308 309 309 309 308
240 244 247 247 249 253 258 259 257 253 247 243 241 237 233 231 232 236 241 243 244 244 243 242 242 241 240 239 239 241 242 243 244 245 246 247 249 250 252 254 256 258 260 261 263 265 266 267 269 270 272 274 276 277 277 274 274 279 284 285 284 283 284 285 287 288 290 293 296 299 303 306 308 310 310 311 311 310 309 309 309 310 311 311 311
250 253 255 257 258 259 259 258 257 254 248 245 244 242 241 241 239 239 242 244 246 248 249 248 248 246 244 244 244 246 247 248 248 249 250 251 252 253 254 256 257 259 260 262 263 265 265 267 268 270 272 273 274 274 273 271 272 277 280 280 278 279 281 283 286 288 291 295 299 302 306 308 310 310 311 311 311 310 310 310 311 312 313 314 314
252 254 255 257 260 262 262 259 256 253 249 247 245 244 244 244 243 243 245 246 247 249 250 250 250 250 250 251 252 253 254 254 254 255 255 256 257 257 258 259 260 261 262 262 263 264 265 266 268 269 270 272 272 272 273 274 275 275 274 274 275 278 281 284 287 290 294 298 301 304 307 309 311 311 312 311 310 310 311 312 313 314 315 315 315
253 253 254 255 257 259 260 257 254 252 250 250 251 251 251 250 247 245 247 248 249 250 249 249 250 251 253 256 256 256 256 256 257 258 258 259 260 260 261 262 263 264 264 264 264 265 266 267 268 269 271 272 273 272 272 272 272 271 271 274 278 280 283 286 289 292 295 299 302 305 308 311 312 312 312 311 310 311 313 314 315 316 316 316 317
254 254 254 254 255 256 256 255 253 252 251 251 253 255 257 258 257 256 255 253 253 253 252 251 251 251 252 254 256 258 259 259 259 260 261 261 262 262 263 264 265 266 267 267 267 266 266 267 269 271 271 271 270 270 269 268 268 269 272 275 278 281 284 286 289 292 296 299 303 306 309 312 312 312 311 311 312 313 316 317 317 318 317 317 317
253 253 253 254 254 254 254 254 254 253 252 252 254 255 257 259 261 261 260 259 258 256 254 253 253 253 253 252 253 254 256 258 260 261 262 262 262 262 263 263 264 265 266 266 266 265 268 271 272 272 270 266 264 266 268 268 269 270 273 276 279 282 284 287 290 294 297 300 304 307 310 312 312 311 311 312 314 316 318 318 318 318 318 317 317
249 250 252 253 253 253 252 252 253 253 254 253 254 256 257 258 259 260 260 261 260 259 257 256 255 255 256 255 255 254 254 256 258 258 259 261 262 262 262 262 262 264 267 268 267 264 262 260 257 255 255 258 263 267 268 268 270 273 275 278 280 282 286 289 292 296 299 302 305 309 311 312 312 311 312 314 316 317 318 319 319 319 318 318 317
244 245 247 248 249 249 249 249 249 250 252 253 254 255 256 257 257 258 259 259 258 258 257 257 257 257 257 257 257 255 253 253 253 252 253 256 257 257 259 261 262 264 266 264 258 250 246 245 246 248 252 259 266 269 269 270 273 275 277 279 282 285 288 291 294 297 300 303 306 309 311 311 311 311 313 315 316 317 319 320 321 321 319 318 317
243 241 241 242 244 244 244 245 245 246 248 250 251 252 253 254 255 255 255 255 255 255 256 258 259 259 260 260 259 256 251 250 252 252 250 249 249 252 257 261 263 263 258 250 244 243 245 249 253 257 261 264 267 269 270 272 275 277 279 282 285 288 291 294 297 299 301 304 306 309 310 310 310 311 313 314 316 318 320 321 322 322 321 320 319
243 240 238 239 240 241 241 242 242 243 245 247 249 251 251 251 251 252 252 253 253 253 255 257 258 259 260 260 259 256 250 244 242 246 248 248 248 251 253 253 255 255 250 245 246 252 257 260 260 262 264 266 268 270 272 274 277 279 282 286 289 292 295 298 300 302 303 304 307 308 309 309 310 311 312 314 316 318 320 320 321 321 321 320 320
243 240 238 238 239 240 241 241 241 241 243 246 248 250 250 250 251 251 251 252 253 254 255 256 257 257 256 254 251 248 242 232 227 233 242 244 241 240 244 247 249 251 249 249 254 261 265 266 265 264 266 267 270 273 275 277 280 283 287 290 294 297 299 301 302 303 303 304 306 308 309 309 309 310 312 314 316 319 320 321 321 321 321 322 322
241 238 237 238 240 240 241 242 242 241 242 244 246 248 249 250 250 251 251 252 252 252 252 251 247 243 240 237 235 234 232 228 227 232 238 238 235 237 248 257 258 256 256 259 263 266 267 266 265 266 268 271 273 275 278 282 285 289 292 295 298 301 302 303 303 303 303 305 307 308 308 308 309 311 313 315 317 319 321 323 323 323 324 325 327
244 245 243 241 242 243 242 242 242 242 243 244 246 247 249 250 251 252 253 252 250 248 246 243 238 231 227 227 231 235 235 232 229 230 232 235 239 246 256 265 266 263 262 263 263 263 263 264 266 268 271 274 277 281 284 288 290 293 296 299 300 302 302 302 302 302 303 306 308 308 308 309 310 313 314 316 318 320 323 325 327 328 328 330 332
246 253 257 255 251 249 247 244 242 242 243 242 239 240 244 249 252 253 253 251 248 243 237 233 231 228 224 224 231 238 236 230 231 238 243 247 253 258 262 264 263 260 258 257 258 260 263 266 270 273 276 279 283 286 288 290 292 295 297 299 300 300 301 300 300 302 305 307 308 308 308 310 312 314 316 318 320 322 325 327 330 332 333 335 336
252 258 265 268 265 259 254 250 246 242 241 240 236 235 237 242 248 252 252 249 245 240 237 235 235 233 229 227 231 239 237 227 237 251 257 259 261 263 263 261 257 255 256 258 261 265 269 272 275 278 280 282 284 286 288 291 294 296 298 298 299 299 299 299 301 303 305 306 307 308 309 311 313 315 317 319 322 325 327 329 331 334 336 339 340
264 267 270 274 274 268 260 255 251 246 242 239 237 235 234 235 241 248 254 256 252 247 246 249 250 250 250 250 253 261 266 262 259 261 263 263 263 263 261 259 258 259 262 266 269 272 275 277 279 280 281 283 285 287 290 293 295 296 297 296 296 297 297 298 300 302 303 304 306 307 310 311 313 314 315 318 322 325 328 330 333 336 338 340 343
274 276 275 273 273 272 268 264 260 255 249 244 240 237 235 234 238 246 257 268 268 255 248 249 248 248 253 259 262 263 266 271 274 273 270 266 264 262 260 260 262 265 269 272 274 276 278 279 279 281 282 285 287 289 291 293 294 294 294 294 295 295 295 296 298 299 300 302 304 307 309 310 310 311 313 316 319 323 326 329 333 337 340 342 343
271 272 270 265 263 264 266 267 267 265 260 255 249 242 237 236 240 245 251 259 267 268 269 270 269 264 262 264 266 266 267 270 273 273 270 266 263 261 262 264 267 270 273 275 276 277 277 278 280 281 284 286 288 290 290 291 291 292 292 292 292 292 293 294 296 297 298 300 302 304 306 307 308 309 311 313 316 319 322 325 329 334 338 341 343
267 261 258 259 260 262 265 268 268 264 261 258 255 249 243 241 243 247 250 255 261 267 271 272 271 270 268 267 268 270 270 270 270 269 266 263 263 264 266 269 272 273 275 276 276 277 278 279 281 283 285 286 287 288 288 289 289 289 289 289 289 290 291 293 294 295 296 298 301 303 304 305 307 308 309 311 313 315 317 320 324 329 333 337 340
264 255 253 257 259 261 266 269 264 253 248 250 251 248 243 237 234 236 240 245 251 256 260 263 265 266 266 266 266 267 267 266 265 263 262 263 265 268 270 272 273 274 274 275 275 276 278 280 282 283 284 285 286 287 287 287 287 287 287 288 288 289 290 291 292 294 295 296 298 299 301 302 303 304 306 308 309 310 311 315 319 323 327 332 336
264 264 267 266 261 259 260 254 230 212 210 215 219 221 223 224 226 229 233 240 247 254 261 266 267 264 259 257 256 257 257 257 257 259 261 263 265 267 268 269 270 271 272 273 275 276 278 279 281 282 282 283 283 283 284 284 285 285 286 287 288 289 290 290 290 291 293 294 294 295 295 296 298 299 300 303 304 305 306 309 314 317 321 325 330
275 272 255 244 244 245 242 228 207 195 194 197 204 216 231 245 254 258 258 257 257 258 260 262 261 259 257 256 254 253 254 254 256 258 260 261 263 264 265 266 268 270 272 274 276 277 278 279 279 280 281 281 282 283 283 283 282 283 285 287 289 291 291 291 292 291 289 289 290 291 291 292 292 292 294 295 297 299 302 305 309 313 317 319 323
266 246 220 218 225 228 222 215 211 210 210 211 217 228 238 248 254 259 261 261 262 262 262 262 262 262 261 260 259 258 257 258 260 262 264 266 267 268 269 270 272 274 276 278 279 280 281 282 282 283 284 284 285 286 286 283 280 279 281 284 287 285 283 285 289 290 287 285 285 285 287 289 289 288 288 288 289 292 298 302 305 309 313 315 317
238 225 214 212 212 207 203 206 212 217 219 218 220 226 233 239 243 248 252 255 257 258 258 263 267 269 268 267 266 265 264 265 266 268 270 271 273 274 275 276 278 279 280 281 282 282 283 284 285 285 286 285 285 285 284 283 281 279 278 277 276 274 274 279 284 286 285 285 286 286 286 287 286 283 282 282 283 286 292 297 300 305 309 310 311
Height
3175 3178 3181 3183 3186 3188 3191 3193 3195 3197 3199 3201 3203 3205 3207 3209 3212 3214 3215 3217 3218 3219 3220 3221 3223 3224 3225 3226 3227 3228 3228 3229 3230 3231 3232 3233 3234 3236 3237 3238 3240 3241 3242 3243 3245 3246 3247 3248 3248 3249 3249 3250 3250 3250 3251 3251 3251 3251 3251 3251 3251 3251 3251 3251 3251 3250 3250 3249 3249 3249 3248 3248 3248 3247 3246 3246 3245 3244 3243 3242 3241 3240 3239 3238 3237
3173 3176 3179 3181 3184 3186 3189 3191 3193 3195 3197 3199 3201 3203 3205 3207 3209 3211 3212 3214 3216 3217 3218 3219 3221 3222 3223 3224 3225 3226 3227 3227 3228 3229 3230 3231 3232 3233 3235 3236 3238 3239 3241 3242 3243 3244 3245 3246 3247 3248 3248 3249 3249 3250 3250 3250 3250 3251 3251 3251 3251 3251 3250 3250 3249 3249 3249 3249 3248 3248 3247 3247 3246 3246 3245 3244 3244 3242 3242 3241 3240 3239 3238 3237 3236
3172 3174 3177 3179 3182 3184 3187 3189 3191 3193 3195 3197 3200 3202 3203 3205 3207 3208 3210 3212 3213 3215 3216 3218 3219 3220 3221 3222 3223 3224 3225 3226 3226 3227 3228 3229 3230 3232 3233 3234 3236 3237 3239 3240 3242 3243 3244 3245 3246 3246 3247 3247 3248 3248 3249 3249 3249 3249 3250 3249 3249 3249 3249 3249 3248 3248 3248 3248 3247 3247 3246 3245 3245 3244 3243 3242 3242 3241 3240 3239 3238 3237 3237 3236 3235
3169 3172 3174 3177 3180 3182 3184 3186 3188 3190 3193 3195 3198 3200 3202 3203 3204 3206 3208 3210 3211 3213 3214 3216 3217 3218 3219 3220 3222 3223 3223 3224 3225 3226 3227 3228 3229 3230 3231 3233 3234 3236 3237 3239 3240 3241 3242 3243 3244 3244 3245 3245 3246 3247 3247 3248 3248 3248 3248 3248 3248 3248 3247 3247 3246 3246 3245 3245 3246 3245 3244 3244 3243 3242 3241 3240 3240 3238 3237 3237 3236 3236 3235 3234 3233
3167 3169 3172 3174 3177 3179 3181 3184 3186 3188 3190 3193 3195 3198 3199 3201 3202 3204 3206 3208 3209 3211 3212 3213 3214 3215 3217 3219 3220 3221 3222 3223 3224 3225 3226 3227 3228 3229 3230 3231 3233 3234 3236 3237 3238 3239 3240 3241 3242 3242 3243 3244 3245 3245 3246 3246 3246 3246 3246 3246 3246 3246 3245 3245 3244 3243 3242 3242 3243 3243 3242 3241 3241 3240 3239 3238 3237 3236 3235 3234 3233 3233 3232 3231 3230
3164 3167 3169 3172 3174 3176 3179 3181 3183 3186 3188 3190 3193 3195 3197 3199 3200 3202 3204 3206 3207 3209 3210 3211 3212 3214 3215 3217 3218 3219 3221 3221 3222 3224 3225 3226 3227 3228 3229 3230 3231 3233 3234 3235 3236 3237 3238 3239 3240 3240 3241 3242 3243 3243 3243 3244 3244 3244 3244 3244 3244 3243 3243 3243 3242 3241 3240 3240 3240 3239 3239 3238 3238 3237 3237 3235 3233 3232 3232 3231 3230 3230 3229 3227 3227
3162 3164 3167 3169 3171 3174 3176 3179 3181 3184 3186 3189 3191 3193 3194 3196 3198 3200 3202 3204 3205 3206 3208 3209 3211 3212 3214 3215 3216 3218 3219 3220 3221 3222 3223 3224 3226 3227 3228 3229 3230 3232 3233 3234 3235 3235 3236 3237 3237 3238 3238 3239 3240 3241 3241 3241 3241 3241 3242 3242 3241 3241 3240 3240 3239 3238 3237 3237 3236 3236 3236 3235 3234 3234 3234 3232 3230 3229 3228 3227 3226 3226 3225 3223 3223
3159 3162 3164 3166 3169 3171 3174 3177 3179 3182 3184 3186 3188 3190 3192 3194 3196 3198 3200 3201 3203 3204 3206 3207 3209 3210 3211 3213 3214 3215 3216 3218 3219 3220 3222 3223 3225 3226 3227 3228 3229 3230 3231 3232 3233 3234 3234 3235 3235 3236 3237 3237 3238 3238 3238 3238 3238 3238 3239 3239 3238 3237 3237 3237 3236 3235 3234 3233 3233 3233 3233 3231 3231 3231 3230 3228 3227 3226 3225 3222 3220 3222 3222 3219 3218
3157 3159 3161 3164 3166 3169 3172 3175 3177 3180 3182 3184 3186 3187 3190 3192 3194 3195 3197 3199 3201 3202 3204 3205 3206 3208 3209 3210 3212 3213 3214 3215 3217 3219 3220 3222 3223 3224 3225 3226 3227 3228 3229 3230 3231 3232 3232 3233 3233 3234 3234 3235 3235 3235 3236 3236 3235 3235 3236 3236 3235 3234 3234 3233 3232 3232 3231 3230 3229 3230 3229 3227 3228 3227 3226 3225 3223 3222 3220 3218 3216 3216 3216 3214 3213
3154 3156 3159 3161 3165 3167 3170 3172 3174 3177 3179 3181 3183 3185 3187 3189 3191 3193 3195 3197 3199 3200 3201 3203 3204 3205 3207 3208 3209 3210 3211 3213 3216 3217 3219 3220 3221 3222 3223 3224 3225 3226 3227 3227 3228 3229 3230 3230 3231 3231 3232 3232 3232 3233 3233 3233 3233 3233 3233 3233 3232 3231 3230 3230 3229 3229 3228 3227 3226 3226 3224 3223 3224 3224 3222 3221 3219 3217 3215 3213 3211 3211 3210 3208 3208
3152 3154 3157 3160 3163 3165 3167 3169 3171 3174 3176 3179 3181 3183 3185 3187 3188 3190 3192 3194 3196 3198 3199 3200 3201 3203 3204 3206 3207 3208 3209 3212 3214 3215 3217 3218 3219 3220 3221 3222 3223 3224 3224 3225 3226 3226 3227 3227 3228 3228 3229 3229 3229 3230 3230 3230 3230 3230 3230 3230 3229 3228 3227 3227 3227 3226 3225 3224 3223 3222 3220 3220 3220 3220 3218 3216 3215 3213 3210 3208 3206 3205 3205 3203 3203
3150 3152 3155 3158 3160 3162 3164 3167 3169 3171 3174 3176 3178 3180 3182 3184 3186 3188 3189 3191 3193 3195 3196 3197 3199 3201 3202 3203 3204 3205 3207 3209 3211 3213 3214 3216 3217 3218 3219 3220 3220 3221 3222 3222 3223 3223 3224 3224 3225 3225 3225 3226 3226 3226 3226 3227 3227 3226 3226 3227 3226 3225 3225 3224 3224 3223 3222 3220 3219 3218 3217 3216 3215 3215 3213 3212 3210 3207 3205 3204 3202 3201 3200 3199 3199
3148 3151 3153 3156 3158 3160 3162 3164 3166 3169 3171 3173 3176 3177 3179 3181 3183 3185 3187 3189 3191 3192 3193 3195 3197 3198 3199 3200 3202 3203 3204 3207 3209 3210 3212 3213 3215 3215 3216 3217 3218 3218 3219 3219 3220 3220 3221 3221 3221 3222 3222 3222 3223 3223 3223 3224 3224 3223 3223 3223 3223 3223 3222 3221 3221 3220 3218 3217 3215 3214 3214 3213 3211 3210 3209 3207 3204 3202 3200 3199 3198 3197 3195 3194 3193
3147 3149 3152 3154 3156 3158 3160 3162 3164 3167 3169 3171 3173 3174 3176 3178 3180 3182 3184 3185 3187 3188 3190 3192 3194 3195 3196 3198 3199 3200 3202 3204 3206 3208 3209 3211 3212 3213 3213 3214 3214 3215 3216 3216 3217 3217 3218 3218 3218 3219 3220 3220 3220 3221 3221 3221 3221 3220 3220 3220 3220 3220 3219 3218 3218 3217 3215 3214 3211 3210 3211 3209 3207 3205 3205 3202 3198 3196 3195 3193 3192 3191 3189 3188 3188
3145 3148 3150 3152 3154 3156 3158 3160 3163 3165 3167 3168 3170 3171 3173 3175 3177 3179 3180 3182 3183 3185 3187 3189 3190 3192 3194 3195 3197 3198 3200 3202 3204 3205 3207 3208 3209 3210 3210 3211 3211 3212 3213 3214 3214 3215 3215 3215 3216 3217 3217 3218 3218 3218 3218 3219 3218 3217 3217 3217 3217 3217 3216 3215 3215 3214 3212 3210 3209 3207 3207 3206 3204 3201 3200 3197 3193 3190 3188 3187 3186 3184 3182 3182 3181
3143 3146 3148 3150 3152 3154 3156 3158 3160 3162 3164 3165 3167 3168 3170 3172 3174 3176 3177 3179 3180 3182 3184 3185 3187 3189 3191 3192 3193 3195 3197 3200 3201 3203 3205 3206 3206 3206 3207 3208 3208 3209 3210 3211 3212 3212 3213 3213 3214 3215 3215 3215 3216 3216 3216 3216 3215 3214 3214 3214 3214 3214 3213 3212 3212 3211 3209 3207 3206 3204 3203 3202 3200 3198 3195 3192 3188 3184 3181 3180 3179 3176 3175 3177 3177
3141 3143 3145 3147 3150 3151 3154 3156 3158 3160 3161 3162 3164 3166 3168 3170 3172 3173 3175 3176 3178 3179 3181 3183 3184 3186 3187 3189 3190 3193 3195 3198 3199 3200 3202 3202 3203 3203 3204 3205 3205 3206 3208 3209 3210 3210 3211 3211 3212 3212 3212 3213 3214 3214 3213 3212 3212 3211 3211 3211 3211 3210 3209 3208 3208 3207 3206 3204 3203 3201 3199 3198 3196 3194 3192 3188 3184 3180 3175 3173 3172 3169 3168 3172 3175
3138 3140 3143 3145 3147 3149 3151 3153 3155 3157 3158 3160 3162 3164 3166 3167 3169 3171 3172 3174 3175 3177 3179 3180 3182 3183 3184 3186 3188 3190 3192 3195 3196 3198 3199 3199 3199 3200 3201 3202 3202 3204 3205 3207 3207 3208 3209 3209 3209 3209 3210 3210 3211 3210 3210 3209 3208 3208 3208 3207 3207 3206 3206 3204 3203 3202 3201 3200 3198 3196 3194 3193 3191 3190 3188 3185 3181 3178 3173 3168 3167 3164 3160 3162 3168
3136 3138 3140 3142 3144 3146 3148 3150 3152 3154 3156 3157 3159 3161 3163 3165 3167 3168 3170 3171 3173 3174 3176 3177 3179 3180 3181 3183 3185 3187 3189 3192 3193 3194 3195 3196 3197 3198 3198 3199 3200 3201 3203 3204 3205 3205 3206 3206 3206 3206 3206 3207 3207 3207 3206 3205 3205 3205 3204 3203 3203 3202 3202 3200 3199 3198 3197 3195 3193 3192 3190 3188 3187 3185 3184 3182 3179 3176 3171 3166 3163 3160 3155 3153 3156
3134 3136 3138 3140 3142 3144 3146 3148 3149 3151 3153 3155 3157 3158 3160 3162 3163 3165 3167 3168 3170 3172 3173 3174 3176 3177 3179 3181 3182 3184 3186 3188 3190 3191 3192 3193 3194 3195 3195 3196 3197 3199 3200 3201 3201 3202 3202 3203 3203 3203 3203 3203 3203 3203 3202 3201 3201 3201 3200 3199 3199 3198 3197 3195 3194 3193 3192 3191 3190 3189 3187 3185 3182 3181 3181 3179 3176 3173 3169 3163 3160 3158 3154 3150 3150
3131 3133 3136 3137 3139 3141 3143 3145 3147 3149 3150 3152 3154 3155 3157 3158 3160 3162 3164 3165 3167 3169 3170 3172 3173 3175 3176 3178 3179 3181 3183 3185 3186 3188 3189 3190 3191 3192 3192 3193 3195 3196 3197 3197 3198 3199 3199 3199 3200 3200 3200 3199 3199 3198 3198 3198 3197 3197 3196 3195 3195 3194 3192 3190 3189 3189 3188 3187 3187 3185 3183 3181 3178 3177 3177 3175 3172 3170 3166 3161 3157 3155 3152 3149 3147
3129 3131 3134 3135 3137 3139 3140 3142 3144 3145 3147 3149 3150 3151 3153 3155 3157 3158 3160 3162 3164 3165 3167 3169 3170 3172 3174 3175 3177 3178 3180 3181 3183 3184 3185 3187 3188 3189 3189 3191 3192 3192 3193 3194 3194 3195 3196 3196 3196 3196 3196 3196 3195 3195 3194 3193 3193 3192 3191 3190 3190 3189 3187 3186 3185 3185 3184 3183 3182 3181 3179 3177 3174 3173 3172 3172 3170 3167 3164 3160 3155 3152 3149 3145 3142
3127 3129 3131 3133 3135 3137 3138 3140 3141 3142 3144 3145 3146 3148 3150 3151 3153 3155 3156 3158 3160 3162 3163 3165 3167 3169 3171 3172 3174 3175 3176 3178 3179 3181 3182 3183 3184 3185 3187 3188 3188 3189 3189 3190 3191 3191 3192 3192 3192 3192 3192 3192 3191 3191 3190 3189 3188 3187 3186 3185 3184 3183 3182 3181 3181 3180 3179 3178 3177 3176 3175 3174 3171 3168 3167 3166 3167 3165 3161 3159 3155 3150 3145 3142 3138
3124 3126 3128 3130 3132 3134 3136 3138 3139 3140 3141 3143 3144 3145 3146 3148 3149 3151 3153 3154 3156 3158 3159 3161 3163 3165 3167 3169 3171 3172 3173 3174 3176 3177 3178 3179 3181 3182 3183 3184 3184 3184 3185 3186 3186 3187 3187 3188 3188 3188 3188 3187 3186 3186 3185 3184 3183 3182 3181 3180 3179 3178 3178 3177 3176 3175 3175 3174 3173 3172 3171 3170 3167 3164 3162 3161 3161 3159 3156 3154 3152 3149 3143 3138 3135
3123 3125 3127 3128 3130 3132 3134 3136 3137 3138 3140 3141 3142 3143 3144 3145 3146 3148 3149 3150 3152 3154 3156 3157 3159 3161 3163 3165 3167 3168 3170 3171 3172 3173 3174 3175 3176 3178 3179 3180 3180 3180 3181 3182 3182 3183 3183 3184 3184 3183 3183 3182 3182 3181 3180 3179 3178 3177 3176 3176 3175 3174 3173 3173 3172 3170 3169 3169 3168 3168 3167 3165 3163 3161 3158 3156 3155 3152 3149 3146 3145 3143 3139 3133 3129
3122 3124 3125 3127 3128 3130 3132 3133 3135 3136 3137 3138 3140 3141 3142 3143 3144 3145 3146 3147 3148 3150 3152 3154 3155 3157 3158 3160 3162 3164 3165 3167 3168 3169 3170 3171 3172 3173 3174 3175 3176 3176 3177 3178 3178 3178 3179 3179 3179 3179 3178 3178 3177 3176 3176 3175 3174 3173 3172 3171 3170 3169 3169 3168 3168 3166 3165 3165 3164 3164 3162 3161 3160 3157 3155 3152 3149 3146 3142 3137 3135 3134 3131 3125 3121
3120 3121 3123 3124 3126 3127 3129 3130 3132 3133 3134 3136 3137 3139 3140 3141 3142 3143 3144 3145 3146 3147 3148 3150 3151 3153 3154 3156 3158 3159 3160 3162 3163 3164 3165 3166 3167 3168 3169 3170 3171 3171 3172 3173 3173 3173 3174 3174 3174 3174 3173 3173 3172 3171 3171 3171 3170 3168 3167 3167 3166 3165 3164 3164 3163 3163 3162 3161 3160 3159 3158 3157 3155 3153 3150 3147 3145 3141 3136 3131 3126 3124 3122 3117 3112
3117 3119 3120 3122 3123 3125 3126 3128 3129 3131 3132 3133 3134 3136 3137 3139 3140 3141 3142 3143 3144 3145 3146 3147 3148 3149 3151 3152 3153 3155 3156 3157 3158 3159 3159 3160 3161 3163 3164 3165 3166 3166 3167 3168 3168 3168 3168 3169 3169 3169 3168 3168 3168 3167 3167 3167 3166 3164 3163 3162 3162 3161 3160 3160 3159 3158 3157 3157 3156 3154 3154 3152 3150 3147 3145 3142 3140 3136 3131 3126 3120 3116 3113 3109 3105
3115 3116 3118 3119 3121 3122 3124 3125 3127 3128 3129 3131 3132 3133 3135 3136 3138 3139 3140 3141 3142 3143 3143 3144 3145 3146 3147 3148 3149 3150 3151 3152 3153 3154 3155 3156 3157 3158 3159 3160 3161 3161 3162 3163 3163 3163 3163 3163 3163 3163 3163 3162 3162 3162 3162 3162 3161 3160 3159 3159 3158 3157 3157 3156 3155 3154 3153 3152 3151 3149 3148 3146 3144 3142 3139 3136 3134 3130 3126 3121 3115 3110 3106 3102 3098
3112 3114 3115 3116 3118 3119 3120 3122 3123 3125 3126 3128 3129 3131 3132 3133 3135 3136 3137 3138 3139 3140 3141 3141 3142 3142 3143 3144 3145 3146 3147 3148 3149 3150 3151 3152 3153 3154 3155 3155 3156 3156 3157 3157 3158 3158 3158 3158 3158 3158 3157 3157 3157 3157 3157 3156 3156 3156 3155 3155 3154 3153 3153 3152 3151 3150 3149 3148 3146 3145 3143 3141 3139 3136 3133 3130 3127 3124 3120 3115 3110 3105 3101 3096 3092
3109 3110 3111 3113 3114 3115 3117 3118 3120 3121 3122 3124 3125 3127 3128 3130 3131 3132 3133 3134 3135 3136 3137 3138 3138 3139 3140 3141 3142 3143 3144 3144 3145 3146 3146 3147 3148 3149 3149 3150 3151 3151 3152 3152 3152 3152 3152 3152 3152 3152 3152 3152 3152 3152 3152 3152 3152 3151 3151 3150 3150 3149 3149 3148 3147 3146 3145 3144 3142 3140 3138 3136 3133 3130 3128 3124 3120 3117 3114 3110 3105 3101 3097 3092 3088
3105 3106 3107 3109 3110 3112 3113 3114 3116 3117 3119 3120 3122 3123 3124 3125 3126 3127 3129 3130 3131 3132 3133 3134 3135 3135 3136 3138 3138 3139 3140 3140 3141 3141 3142 3142 3143 3143 3144 3145 3145 3146 3146 3146 3146 3146 3147 3147 3147 3147 3148 3148 3148 3148 3148 3148 3148 3148 3147 3146 3146 3145 3144 3144 3143 3142 3141 3140 3138 3136 3134 3132 3129 3126 3123 3119 3115 3111 3107 3104 3100 3096 3092 3088 3084
3101 3102 3104 3105 3106 3108 3109 3111 3112 3113 3115 3116 3118 3119 3120 3122 3122 3123 3125 3126 3127 3128 3129 3130 3131 3131 3132 3134 3134 3135 3136 3136 3137 3137 3137 3138 3138 3139 3139 3140 3140 3140 3141 3141 3141 3142 3142 3143 3143 3143 3143 3143 3144 3144 3144 3144 3144 3144 3143 3142 3142 3141 3140 3140 3139 3138 3136 3135 3133 3131 3129 3127 3124 3121 3118 3114 3110 3106 3102 3098 3095 3091 3087 3083 3080
3097 3098 3100 3101 3103 3104 3106 3107 3108 3110 3111 3112 3114 3115 3117 3118 3119 3120 3121 3122 3123 3124 3125 3125 3126 3127 3128 3128 3129 3130 3131 3131 3132 3132 3133 3133 3134 3134 3135 3135 3135 3136 3136 3137 3137 3138 3139 3139 3139 3139 3139 3139 3140 3140 3140 3140 3140 3139 3139 3139 3138 3137 3137 3136 3134 3133 3131 3130 3128 3126 3124 3122 3119 3116 3113 3109 3106 3102 3099 3095 3091 3087 3083 3079 3076
3094 3095 3096 3098 3099 3101 3102 3103 3105 3106 3107 3109 3110 3112 3113 3114 3115 3116 3117 3118 3119 3119 3120 3121 3122 3122 3123 3124 3124 3125 3126 3126 3127 3127 3128 3129 3129 3130 3130 3130 3131 3131 3132 3133 3134 3135 3136 3136 3135 3135 3135 3136 3136 3136 3136 3136 3135 3135 3135 3134 3134 3133 3132 3131 3130 3129 3127 3125 3123 3121 3119 3117 3114 3112 3108 3105 3101 3098 3095 3091 3088 3084 3080 3076 3072
3090 3091 3093 3094 3096 3097 3098 3100 3101 3103 3104 3105 3107 3108 3109 3110 3111 3112 3113 3114 3115 3115 3116 3117 3117 3118 3118 3119 3119 3120 3121 3121 3121 3122 3123 3124 3124 3125 3126 3126 3127 3127 3128 3129 3130 3131 3131 3132 3131 3131 3132 3132 3132 3132 3132 3131 3131 3131 3130 3130 3129 3129 3128 3127 3125 3124 3122 3121 3119 3117 3115 3112 3110 3107 3104 3101 3098 3094 3091 3088 3085 3081 3077 3073 3069
3088 3089 3090 3091 3093 3094 3095 3096 3098 3099 3100 3102 3103 3104 3105 3106 3107 3108 3109 3110 3110 3111 3112 3112 3113 3114 3114 3114 3115 3115 3116 3116 3117 3117 3117 3118 3120 3121 3122 3122 3123 3123 3124 3125 3125 3126 3126 3127 3127 3128 3128 3128 3128 3128 3127 3127 3127 3126 3126 3125 3124 3124 3123 3122 3120 3119 3117 3116 3114 3112 3110 3108 3105 3103 3100 3097 3095 3091 3088 3085 3082 3078 3075 3071 3067
3086 3086 3087 3088 3089 3090 3092 3093 3094 3095 3097 3098 3099 3100 3101 3102 3103 3104 3105 3105 3106 3107 3107 3108 3109 3109 3109 3109 3110 3110 3110 3112 3113 3113 3113 3114 3116 3117 3117 3118 3119 3120 3121 3121 3122 3122 3123 3123 3124 3124 3124 3124 3124 3123 3123 3122 3122 3121 3121 3120 3119 3119 3118 3117 3115 3114 3112 3111 3109 3107 3105 3103 3101 3099 3096 3093 3090 3087 3084 3081 3078 3075 3071 3068 3064
3084 3084 3084 3085 3086 3087 3088 3090 3091 3092 3093 3094 3095 3096 3097 3098 3099 3100 3100 3101 3102 3102 3102 3102 3103 3103 3103 3104 3105 3105 3106 3107 3107 3108 3109 3111 3112 3113 3114 3114 3116 3117 3118 3118 3118 3119 3119 3119 3119 3119 3119 3119 3119 3118 3118 3117 3117 3116 3116 3115 3115 3114 3113 3112 3110 3109 3107 3105 3104 3102 3100 3098 3096 3094 3091 3089 3086 3083 3081 3077 3074 3071 3067 3064 3061
3082 3082 3082 3082 3083 3084 3085 3086 3087 3089 3090 3090 3091 3092 3093 3095 3095 3096 3096 3097 3097 3096 3097 3096 3096 3097 3098 3100 3101 3101 3101 3102 3104 3106 3107 3108 3109 3110 3110 3111 3111 3112 3113 3114 3114 3115 3115 3115 3115 3115 3115 3114 3114 3114 3113 3113 3113 3112 3112 3111 3110 3109 3108 3107 3105 3104 3102 3100 3098 3097 3095 3093 3091 3089 3087 3084 3082 3079 3077 3074 3071 3068 3064 3061 3058
3079 3080 3080 3080 3080 3081 3082 3083 3084 3085 3086 3087 3088 3089 3090 3091 3092 3092 3092 3092 3091 3092 3092 3092 3091 3092 3095 3097 3098 3099 3099 3102 3104 3105 3105 3105 3106 3107 3107 3108 3108 3108 3109 3110 3110 3110 3110 3111 3111 3111 3111 3110 3110 3110 3109 3109 3109 3108 3107 3106 3105 3104 3103 3102 3101 3099 3097 3095 3094 3092 3090 3089 3087 3085 3082 3080 3078 3075 3073 3070 3068 3065 3061 3058 3055
3076 3076 3077 3077 3078 3078 3079 3080 3081 3082 3082 3083 3085 3086 3087 3089 3089 3089 3088 3088 3088 3089 3090 3090 3089 3091 3093 3095 3096 3097 3098 3100 3102 3102 3102 3103 3103 3104 3105 3105 3105 3105 3106 3106 3107 3107 3107 3107 3107 3107 3107 3106 3106 3106 3106 3105 3104 3104 3103 3102 3101 3100 3099 3098 3096 3094 3093 3091 3090 3088 3086 3085 3083 3081 3078 3076 3074 3071 3069 3066 3064 3062 3059 3056 3052
3072 3073 3073 3074 3074 3075 3076 3077 3078 3078 3079 3080 3081 3083 3084 3085 3086 3085 3085 3086 3087 3088 3089 3089 3090 3091 3092 3093 3094 3094 3095 3097 3099 3100 3100 3101 3101 3101 3102 3102 3102 3103 3103 3103 3103 3104 3103 3103 3103 3103 3103 3103 3102 3102 3102 3101 3100 3099 3098 3097 3096 3095 3094 3093 3092 3090 3089 3087 3086 3084 3083 3081 3080 3078 3076 3073 3071 3068 3065 3063 3060 3058 3056 3053 3049
3068 3069 3070 3070 3071 3072 3073 3074 3075 3076 3076 3077 3078 3079 3080 3082 3083 3083 3083 3083 3084 3085 3087 3087 3088 3089 3090 3091 3092 3093 3094 3095 3096 3097 3097 3098 3098 3098 3099 3099 3099 3100 3100 3100 3100 3100 3100 3100 3099 3099 3099 3099 3099 3098 3098 3097 3096 3095 3094 3093 3092 3091 3090 3089 3088 3086 3085 3084 3082 3081 3080 3078 3077 3075 3073 3071 3068 3066 3063 3060 3058 3056 3053 3050 3046
3064 3065 3066 3066 3067 3068 3069 3070 3071 3072 3073 3074 3075 3076 3077 3078 3079 3080 3080 3081 3081 3082 3083 3084 3085 3087 3088 3089 3090 3091 3092 3092 3093 3094 3094 3095 3095 3096 3096 3096 3096 3097 3096 3097 3097 3096 3096 3096 3096 3096 3095 3095 3094 3094 3093 3092 3091 3091 3089 3088 3087 3086 3085 3084 3083 3082 3081 3080 3079 3078 3076 3075 3073 3072 3070 3068 3066 3064 3061 3059 3056 3054 3051 3048 3045
3061 3062 3062 3063 3063 3064 3065 3066 3067 3068 3070 3071 3072 3072 3073 3075 3076 3077 3078 3078 3079 3080 3081 3082 3083 3084 3085 3086 3087 3088 3089 3090 3090 3091 3092 3092 3092 3093 3093 3093 3093 3093 3093 3093 3093 3093 3093 3092 3092 3092 3091 3091 3090 3089 3088 3087 3087 3086 3085 3084 3083 3082 3081 3080 3079 3078 3077 3076 3075 3074 3073 3071 3070 3068 3067 3065 3064 3062 3059 3057 3054 3052 3050 3047 3044
3058 3058 3059 3059 3059 3060 3062 3063 3064 3065 3066 3067 3068 3069 3070 3071 3073 3074 3075 3076 3077 3078 3078 3079 3080 3081 3082 3083 3084 3085 3086 3087 3087 3088 3088 3088 3089 3089 3089 3089 3089 3089 3089 3089 3089 3089 3089 3088 3088 3087 3087 3086 3085 3085 3084 3083 3082 3081 3080 3079 3078 3077 3076 3075 3074 3073 3073 3072 3071 3070 3069 3067 3066 3065 3063 3062 3060 3059 3057 3055 3053 3050 3048 3046 3043
3054 3055 3055 3055 3056 3057 3059 3060 3061 3062 3063 3064 3065 3067 3068 3069 3070 3071 3073 3074 3075 3076 3076 3077 3078 3078 3079 3080 3081 3082 3082 3083 3083 3084 3084 3084 3085 3085 3085 3085 3085 3085 3085 3085 3085 3085 3085 3084 3084 3083 3082 3082 3081 3080 3079 3078 3077 3076 3075 3074 3073 3072 3071 3070 3069 3069 3068 3067 3067 3065 3064 3063 3062 3061 3060 3059 3057 3056 3054 3053 3051 3048 3046 3044 3042
3050 3052 3052 3053 3053 3054 3056 3057 3058 3059 3060 3062 3063 3065 3066 3067 3068 3069 3070 3072 3073 3074 3074 3075 3075 3076 3077 3077 3078 3078 3079 3079 3079 3080 3080 3080 3080 3081 3081 3081 3080 3080 3080 3080 3080 3080 3079 3079 3079 3078 3078 3077 3076 3075 3075 3074 3072 3071 3070 3069 3068 3067 3066 3065 3065 3064 3064 3063 3062 3061 3060 3059 3058 3057 3056 3055 3053 3052 3050 3049 3048 3046 3044 3042 3040
3048 3049 3050 3050 3051 3052 3053 3054 3055 3057 3058 3060 3061 3063 3064 3065 3066 3067 3068 3069 3071 3071 3072 3072 3073 3073 3074 3074 3075 3075 3075 3076 3076 3076 3076 3076 3076 3076 3076 3076 3076 3076 3075 3075 3074 3074 3074 3073 3073 3073 3072 3071 3071 3070 3069 3068 3067 3066 3065 3064 3064 3063 3062 3061 3060 3060 3059 3058 3057 3056 3055 3054 3054 3053 3051 3050 3049 3048 3047 3046 3045 3044 3042 3040 3039
3046 3047 3048 3048 3049 3050 3051 3052 3054 3055 3056 3057 3059 3060 3061 3063 3064 3065 3066 3067 3068 3069 3069 3070 3070 3070 3070 3071 3071 3072 3072 3072 3072 3072 3072 3072 3072 3072 3072 3072 3071 3071 3071 3070 3070 3070 3069 3069 3068 3067 3067 3066 3065 3064 3064 3063 3062 3061 3061 3060 3059 3058 3057 3056 3056 3055 3054 3053 3052 3051 3050 3050 3048 3047 3046 3045 3044 3044 3043 3042 3041 3040 3039 3038 3037